Regional Weather Roundup
Issued by NWS

Home | Current Version | Previous Version | Text Only | Print | Product List | Glossary Off
Versions: 1 2 3 4 5 6 7 8 9 10 11 12 13 14 15 16 17 18 19 20 21 22 23 24 25 26 27 28 29 30 31 32 33 34 35 36 37 38 39 40 41 42 43 44 45 46 47 48 49 50

000
ASUS43 KMKX 260200
RWRWI

WISCONSIN REGIONAL WEATHER ROUNDUP
NATIONAL WEATHER SERVICE MILWAUKEE/SULLIVAN WI
900 PM CDT SAT MAR 25 2017

NOTE: "FAIR" INDICATES FEW OR NO CLOUDS BELOW 12,000 FEET WITH NO
SIGNIFICANT WEATHER AND/OR OBSTRUCTIONS TO VISIBILITY.

WIZ001-002-006>008-014>016-023>028-260300-
NORTHWEST WISCONSIN

CITY           SKY/WX    TMP DP  RH WIND       PRES   REMARKS
SUPERIOR ARPT  CLOUDY    33  31  93 E13G18    30.17F WCI  24
ASHLAND        CLOUDY    33  30  88 NE10      30.17F WCI  25
HAYWARD        CLOUDY    38  29  70 NE10      30.11S WCI  31
SIREN          CLOUDY    41  31  66 NE6       30.09F
CUMBERLAND     CLOUDY    37  32  81 E10G16    30.08S WCI  30
RICE LAKE      CLOUDY    38  35  89 CALM      30.10S
CHETEK         DRIZZLE   37  35  94 CALM      30.09S
LADYSMITH      CLOUDY    37  35  92 E8        30.12S WCI  31
EAU CLAIRE     NOT AVBL
MENOMONIE      CLOUDY    39  36  91 NE9       30.08S WCI  32
NEW RICHMOND   CLOUDY    38  33  82 E8        30.07S WCI  32
OSCEOLA        CLOUDY    41  33  73 E13       30.10S
$$

WIZ003>005-009-010-017-018-260300-
NORTH CENTRAL WISCONSIN

CITY           SKY/WX    TMP DP  RH WIND       PRES   REMARKS
MANITOWISH WTR CLOUDY    35  32  89 E5        30.12S WCI  31
ARBOR VITAE    CLOUDY    37  31  78 SE12G21   30.12R WCI  30
WOODRUFF       CLOUDY    37  31  78 SE12G21   30.12R WCI  30
RHINELANDER    LGT RAIN  35  31  85 E12       30.13S FOG     WCI  27
EAGLE RIVER    CLOUDY    34  28  79 E8G20     30.14R WCI  27
LAND O LAKES   CLOUDY    37  30  77 E8        30.15F WCI  30
PHILLIPS       LGT RAIN  35  34  98 E5        30.11S WCI  31
TOMAHAWK       CLOUDY    33  31  93 E6        30.13S FOG     WCI  27
MEDFORD        CLOUDY    33  32  96 E9G18     30.08S FOG     WCI  25
MERRILL        CLOUDY    33  32  97 E6        30.13S FOG     WCI  27
$$

WIZ029-030-035-036-043>047-260300-
CENTRAL WISCONSIN

CITY           SKY/WX    TMP DP  RH WIND       PRES   REMARKS
WAUSAU         CLOUDY    33  31  92 E9        30.10S WCI  25
MOSINEE        DRIZZLE   32  32 100 E15G22    30.11S WCI  22
MARSHFIELD     CLOUDY    33  30  88 E13       30.07S WCI  24
STEVENS POINT  CLOUDY    31  31 100 E15       30.11S WCI  21
WAUPACA        LGT RAIN  36  34  92 NE8       30.12F WCI  29
WAUTOMA        CLOUDY    35  34  96 NE15      30.09S WCI  25
WISC RAPIDS    CLOUDY    34  33  96 E9        30.10S WCI  27
CAMP DOUGLAS   CLOUDY    36  36 100 E10       30.07R WCI  28
$$

WIZ011>013-019>022-031-037>040-048>050-260300-
NORTHEAST WISCONSIN

CITY           SKY/WX    TMP DP  RH WIND       PRES   REMARKS
ANTIGO         CLOUDY    31  31  99 E10       30.13S WCI  23
SHAWANO        LGT RAIN  35  32  91 NE12G18   30.16S WCI  26
OCONTO         CLOUDY    33  32  96 NE8       30.18S WCI  26
STURGEON BAY   LGT RAIN  35  34  96 NE9       30.17F WCI  28
GREEN BAY      LGT RAIN  35  35 100 NE14      30.14F WCI  26
MANITOWOC      NOT AVBL
APPLETON       LGT RAIN  34  34 100 NE13G21   30.10S WCI  25
CLINTONVILLE   LGT RAIN  32  32 100 NE12G17   30.14S WCI  23
OSHKOSH        CLOUDY    37  35  92 E12       30.09F WCI  29
$$

WIZ032>034-041-042-053>061-260300-
SOUTHWEST WISCONSIN

CITY           SKY/WX    TMP DP  RH WIND       PRES   REMARKS
LA CROSSE      CLOUDY    38  36  92 NE10      30.05S WCI  31
SPARTA         CLOUDY    36  35  96 E12       30.07R WCI  27
VIROQUA        CLOUDY    36  36 100 E17       30.00F WCI  26
BOSCOBEL       CLOUDY    40  38  93 NE9G18    30.01S WCI  34
PRAIRIE DU CHI CLOUDY    39  38  97 NE10      29.99F WCI  32
PLATTEVILLE    CLOUDY    40  40 100 E20G25    29.97R WCI  30
$$

WIZ056-057-062-063-064-067-068-260300-
SOUTH CENTRAL WISCONSIN

CITY           SKY/WX    TMP DP  RH WIND       PRES   REMARKS
REEDSBURG      CLOUDY    36  36 100 E10       30.05S FOG     WCI  28
BARABOO/DELLS  CLOUDY    36  35  97 NE13      30.05S FOG     WCI  27
LONE ROCK      NOT AVBL
MINERAL POINT  CLOUDY    39  39 100 E15G22    29.98R FOG     WCI  31
MADISON        DRIZZLE   39  37  92 NE10      30.03F WCI  32
MIDDLETON      CLOUDY    40  39  97 NE9       30.03S WCI  34
WATERTOWN      CLOUDY    38  38 100 E12       30.04R WCI  31
MONROE         CLOUDY    37  37 100 NE16      29.98R WCI  28
JANESVILLE     CLOUDY    41  41 100 NE12      30.00R
$$

WIZ051-052-058>065-066-070>072-260300-
SOUTHEAST WISCONSIN

CITY           SKY/WX    TMP DP  RH WIND       PRES   REMARKS
MILWAUKEE      LGT RAIN  39  36  89 NE13      30.07R FOG     WCI  31
WAUKESHA       LGT RAIN  36  36 100 NE13G21   30.05F WCI  27
MILWAUKEE/TIMM CLOUDY    37  36  93 NE10      30.08S WCI  30
RACINE         LGT RAIN  39  37  92 NE13      30.06S FOG     WCI  31
KENOSHA        CLOUDY    41  39  93 NE12      30.03R FOG
FOND DU LAC    CLOUDY    38  35  89 E10       30.09S WCI  31
SHEBOYGAN      CLOUDY    37  35  92 NE15      30.10F WCI  28
WEST BEND      LGT RAIN  36  36 100 NE12      30.08S WCI  27
JUNEAU         LGT RAIN  37  37  97 NE13      30.06F WCI  29
$$

LSZ147-162-260300-
LAKE SUPERIOR

STATION/POSITION TIME  TEMP    WIND        PRES    WAVE
                       AIR SEA DIR/SP/G            HT/PER
                 (UTC) (F)     (DEG/KT/KT) (MB)    (FT/S)
DEVILS ISLAND    0100   33      70/ 21/ 23 1023.6F
PORT WING        0030   34      50/ 10/ 13 1022.4S
SAXON HARBOR     0030   33      70/  6/ 12 1021.3F
$$

LMZ867-665-643>646-260300-
LAKE MICHIGAN

STATION/POSITION TIME  TEMP    WIND        PRES    WAVE
                       AIR SEA DIR/SP/G            HT/PER
                 (UTC) (F)     (DEG/KT/KT) (MB)    (FT/S)
CHAMBERS ISLAND  0040   33      30/ 12/ 16 1022.4R
NORTHPORT PIER   0040   35      60/ 16/ 22 1023.0S
KEWAUNEE LAKESHO 0124   36      50/ 12/ 15 1020.6
SHEBOYGAN LAKESH 0100   37      20/ 15/ 16 1020.2R
PORT WASHINGTON  0040   39      40/ 13/ 17 1020.0F
MILWAUKEE LAKESH 0130   38      20/ 16/ 18   N/A
KENOSHA   LAKESH 0100   38      20/ 18/ 20 1016.9
$$

TC  - TEMPERATURE IN CELSIUS
VSB - VISIBILITY IN STATUTE MILES
WCI - WIND CHILL INDEX
HX  - HEAT INDEX





USA.gov is the U.S. government's official web portal to all federal, state and local government web resources and services.